NOAA 16 DEB, 41423

Orbit data source: Space-Track

NOAA 16 DEB, 41423 is space debris in SSO originally from a launch on Thu, 21 Sep 2000 UTC launched from the Air Force Western Test Range (AFWTR). Debris objects in space refer to the collection of defunct objects orbiting the Earth. Examples of debris include non-operational satellites, rocket bodies, and fragments generated from explosions, collisions, or faulty payload assembly.

Loading next visibility...
Identifier
41423, 2000-055LC
Orbit
SSO
Country
Flag of USUS
Related business
Manufacturer
Unknown
Mission
Spacecraft
Bus & Motor
Unknown
Mass
Unknown
Launch date (UTC)
2000-09-21 (25 years ago)
Launch vehicle
Unknown
Launch site
Air Force Western Test Range (AFWTR)
Object type
Payload
Rocket body
Debris
Shape & HBR
Unknown shape, 0.1 m
Radar Cross Section
Small (<0.1 m²)

Expand to show TLE details & history
Last TLE update: 18 hours ago

TLE from 18 hours ago
0 NOAA 16 DEB
1 41423U 00055LC  25286.68251919  .00006775  00000-0  24760-2 0  9994
2 41423  98.6803  10.8643 0013445 183.1790 176.9311 14.33222345502136
Epoch: 2025-10-13T16:22Z
TLE epoch observation values (Epoch: 2025-10-13T16:22:49.658Z)
Latitude
0.00005°
Longitude
102.67559°
Altitude
793.527 km
Speed
7.452 km/s
True Right ascension
00h 43m 27s
True Declination
0° 00' 00"
Sunlit
Object was in full shadow at epoch
Visualization orbit readout
Latitude
Unknown
Longitude
Unknown
Altitude
Unknown
Speed
Unknown
Apparent Right ascension
Unknown
Apparent Declination
Unknown
Sunlit
N/A
Visualization observer readout
Local Sidereal Time
05:25:05
Azimuth
Unknown
Elevation
Unknown
Doppler factor
Unknown
Orbital elements
Apogee altitude
787.741 km
Perigee altitude
768.498 km
Semi-major axis
7,156.257 km
Eccentricity
0.00134
Inclination
98.6803°
RAAN
10.8643°
Arg. of periapsis
183.179°
True anomaly
176.93933°
Mean anomaly
176.9311°
Eccentric anomaly
176.93522°
Mean motion
3.58521 °/min
Orbital period
100.41 mins
BSTAR
0.002476
Loading maneuver chart data...
Computing Atmospheric mass density...
Loading historical data...
Loading historical data...
Loading historical data...
Loading historical data...
Loading historical data...
Loading historical data...
Loading historical data...

Documentation

Showing up to 5 results
|